Flag for Fiji Weather past 2 weeks in Lautoka, Fiji

Now
66 °F

Passing clouds.


Feels Like: 66 °F
Forecast: 72 / 82 °F
Wind: 9 mph from Southeast

Location: Nandi

Current Time: May 23, 2015 at 1:47:53 AM

Latest Report: May 23, 2015 at 1:00 AM


Visibility: N/A

Pressure: 29.98 "Hg

Humidity: 83%

Dew point: 61 °F

Location of LautokaLocation

Historic Weather in Lautoka — Graph

°F

Lautoka temperature yesterday

Maximum temperature yesterday: 84 °F (at 12:00 PM)
Minimum temperature yesterday: 66 °F (at 5:00 AM)
Average temperature yesterday: 75 °F

Past Weeks' High & Low Weather Summary

 TemperatureHumidityPressure
High88 °F (May 12, 2:00 PM)100% (May 8, 6:00 AM)30.07 "Hg (May 8, 6:00 AM)
Low59 °F (May 19, 6:00 AM)45% (May 18, 1:00 PM)29.74 "Hg (May 8, 2:00 PM)
Average76 °F77%29.91 "Hg
* Reported Midnight between May 7 and May 8 — Midnight between May 22 and May 23, Lautoka, Weather by CustomWeather, © 2015

Note: Actual official high and low records may vary slightly from our data, if they occured in-between our weather recording intervals... More about our weather records

Advertising

Lautoka weather history for previous 24 hours

 ConditionsComfort  
Time TempWeatherWind HumidityBarometerVisibility
12:00 AM
Sat, May 23
68 °FPassing clouds.7 mph78%29.98 "HgN/A
11:00 PM
Fri, May 22
70 °FPassing clouds.5 mph73%29.98 "HgN/A
10:00 PM70 °FPassing clouds.10 mph78%29.98 "HgN/A
9:00 PM70 °FPassing clouds.9 mph78%29.98 "HgN/A
8:00 PM73 °FPassing clouds.9 mph69%29.98 "HgN/A
7:00 PM75 °FPassing clouds.10 mph65%29.98 "HgN/A
6:00 PM79 °FPartly cloudy.3 mph70%29.95 "HgN/A
5:00 PM81 °FPartly sunny.10 mph66%29.92 "HgN/A
4:00 PM82 °FScattered clouds.10 mph58%29.92 "HgN/A
3:00 PM84 °FPassing clouds.6 mph48%29.92 "HgN/A
2:00 PM84 °FScattered clouds.13 mph48%29.92 "HgN/A
1:00 PM84 °FScattered clouds.15 mph48%29.95 "HgN/A
12:00 PM84 °FPassing clouds.13 mph51%29.98 "HgN/A
11:00 AM81 °FPassing clouds.13 mph54%30.01 "HgN/A
10:00 AM81 °FPassing clouds.14 mph54%30.01 "HgN/A
9:00 AM77 °FPassing clouds.12 mph61%30.04 "HgN/A
8:00 AM73 °FPassing clouds.7 mph74%30.01 "HgN/A
7:00 AM68 °FPassing clouds.2 mph88%30.01 "HgN/A
6:00 AM68 °FPassing clouds.3 mph88%30.01 "HgN/A
5:00 AM66 °FPassing clouds.5 mph94%29.98 "HgN/A
4:00 AM70 °FPassing clouds.9 mph83%29.98 "HgN/A
3:00 AM70 °FPassing clouds.5 mph83%30.01 "HgN/A
2:00 AM70 °FPassing clouds.10 mph83%30.01 "HgN/A
1:00 AM70 °FPassing clouds.7 mph83%30.01 "HgN/A
Weather by CustomWeather, © 2015

See weather overviewHow to use our weather pages